This demonstration page uses our WeatherBlox Daily Observations layout. Learn more.

Left ArrowRight Arrow

39.92423, -83.80882

Hourly Observations for November 15, 2015

Temp ( °F °C ) Dew Point ( °F °C ) Humidity (%) Winds ( mph kmh ) Pressure ( in mb ) Visibility ( mi km ) Precip ( " mm )
12:56 am 00:56 Clear 42 5.5 27 -2.7 56 56 SSW 12 19 30.36 1028 10 16.0934 0 0
1:56 am 01:56 Clear 42 5.5 27 -2.7 56 56 SSW 12 19 30.36 1028 10 16.0934 0 0
2:56 am 02:56 Clear 41 5 28 -2.2 60 60 SSW 10 17 30.37 1028 10 16.0934 0 0
3:56 am 03:56 Clear 41 5 28 -2.2 60 60 SSW 10 17 30.37 1028 10 16.0934 0 0
4:56 am 04:56 Clear 40 4.4 28 -2.2 63 63 SSW 10 17 30.38 1029 10 16.0934 0 0
5:56 am 05:56 Clear 40 4.4 28 -2.2 63 63 SSW 12 19 30.38 1029 10 16.0934 0 0
6:56 am 06:56 Clear 40 4.4 29 -1.6 65 65 SSW 10 17 30.4 1029 10 16.0934 0 0
7:56 am 07:56 Sunny 40 4.4 29 -1.6 65 65 SSW 10 17 30.41 1030 10 16.0934 0 0
8:56 am 08:56 Sunny 45 7.2 31 -0.5 58 58 SSW 10 17 30.41 1030 10 16.0934 0 0
9:56 am 09:56 Sunny 51 10.5 33 0.5 50 50 SW 12 19 30.41 1030 10 16.0934 0 0
10:56 am 10:56 Sunny 57 13.8 34 1.1 42 42 SW 14 22 30.4 1029 10 16.0934 0 0
11:56 am 11:56 Sunny 60 15.5 35 1.6 39 39 WSW 9 15 30.38 1029 10 16.0934 0 0
12:56 pm 12:56 Sunny 63 17.2 35 1.6 35 35 WSW 9 15 30.36 1028 10 16.0934 0 0
1:56 pm 13:56 Sunny 64 17.7 36 2.2 36 36 SW 13 20 30.34 1027 10 16.0934 0 0
2:56 pm 14:56 Sunny 64 17.7 36 2.2 36 36 SW 8 13 30.32 1027 10 16.0934 0 0
3:56 pm 15:56 Sunny 64 17.7 36 2.2 36 36 WSW 9 15 30.32 1027 10 16.0934 0 0
4:56 pm 16:56 Sunny 60 15.5 36 2.2 41 41 S 6 9 30.32 1027 10 16.0934 0 0
5:56 pm 17:56 Clear 55 12.7 36 2.2 49 49 S 5 7 30.32 1027 10 16.0934 0 0
6:56 pm 18:56 Clear 52 11.1 35 1.6 52 52 S 6 9 30.33 1027 10 16.0934 0 0
7:56 pm 19:56 Clear 51 10.5 34 1.1 52 52 S 3 6 30.33 1027 10 16.0934 0 0
8:56 pm 20:56 Clear 50 10 34 1.1 54 54 S 5 7 30.32 1027 10 16.0934 0 0
9:56 pm 21:56 Clear 45 7.2 33 0.5 63 63 S 6 9 30.32 1027 10 16.0934 0 0
10:56 pm 22:56 Clear 43 6.1 32 0 65 65 S 5 7 30.31 1027 10 16.0934 0 0
11:56 pm 23:56 Clear 46 7.7 33 0.5 61 61 S 7 11 30.3 1026 10 16.0934 0 0

Powered by AerisWeather